Powrót do katalogu

STARLINK-31558

AktywnyŁącznośćVLEO
NORAD 59196·PAYLOAD·🇺🇸 United States

Wystrzelony Mar 10, 2024 z Cape Canaveral Space Force Station

Loading…

Następne Przeloty (najbliższe 24 godziny)

TLE

ŚwieżeSource: CelesTrak SupGP

Epoka: Sep 14, 2026, 20:42 UTC

1 59196C 24045U   26257.86298611 -.00022655  00000+0 -82070-3 0  2576
2 59196  43.0020 103.8563 0001755 271.4559 205.5491 15.27583019    16

Śledź STARLINK-31558 w czasie rzeczywistym z AllMySat

Download on the App Store